Flag Weather past 2 weeks in Samsun, Turkey

Now
54 °F

Partly cloudy.


Feels Like: 54 °F
Forecast: 52 / 59 °F
Wind: 2 mph from North

Location: Samsun / Carsamba

Current Time: Oct 31, 2014 at 7:06:56 AM

Latest Report: Oct 31, 2014 at 5:50 AM


Visibility: N/A

Pressure: 29.89 "Hg

Humidity: 94%

Dew point: 52 °F

Location of SamsunLocation

Historic Weather in Samsun — Graph

°F

Samsun temperature yesterday

Maximum temperature yesterday: 66 °F (at 11:50 AM)
Minimum temperature yesterday: 54 °F (at 10:50 PM)
Average temperature yesterday: 59 °F

Past Weeks' High & Low Weather Summary

 TemperatureHumidityPressure
High82 °F (Oct 22, 2:50 PM)100% (Oct 18, 3:50 AM)30.30 "Hg (Oct 18, 3:50 AM)
Low37 °F (Oct 21, 4:50 AM)20% (Oct 22, 2:50 PM)29.68 "Hg (Oct 18, 11:50 AM)
Average60 °F82%30.00 "Hg
* Reported Oct 16 6:50 AM — Oct 31 5:50 AM, Samsun, Weather by CustomWeather, © 2014

Note: Actual official high and low records may vary slightly from our data, if they occured in-between our weather recording intervals... More about our weather records

Advertising

Samsun weather history for previous 24 hours

 ConditionsComfort  
Time TempWeatherWind HumidityBarometerVisibility
5:50 AM
Oct 31
54 °FPartly cloudy.2 mph94%29.89 "HgN/A
4:50 AM54 °FPartly cloudy.2 mph94%29.89 "HgN/A
3:50 AM54 °FPartly cloudy.2 mph94%29.89 "HgN/A
2:50 AM54 °FFog.3 mph94%29.89 "Hg3 mi
1:50 AM52 °FFog.3 mph100%29.92 "Hg3 mi
12:50 AM54 °FFog.No wind94%29.92 "Hg2 mi
11:50 PM
Oct 30
54 °FFog.2 mph94%29.92 "Hg1 mi
10:50 PM54 °FFog.2 mph100%29.92 "Hg1 mi
9:50 PM55 °FFog.2 mph94%29.92 "Hg1 mi
8:50 PM55 °FFog.2 mph100%29.92 "Hg2 mi
7:50 PM59 °FPassing clouds.2 mph94%29.92 "Hg4 mi
6:50 PM59 °FMostly cloudy.2 mph94%29.92 "HgN/A
5:50 PM59 °FLight rain. Passing clouds.2 mph94%29.92 "Hg4 mi
4:50 PM61 °FLight rain. Passing clouds.2 mph94%29.92 "Hg4 mi
3:50 PM61 °FBroken clouds.3 mph88%29.92 "Hg4 mi
2:50 PM63 °FLight rain. Partly sunny.3 mph83%29.92 "HgN/A
1:50 PM63 °FBroken clouds.2 mph83%29.92 "HgN/A
12:50 PM64 °FBroken clouds.5 mph73%29.92 "HgN/A
11:50 AM66 °FBroken clouds.2 mph68%29.95 "HgN/A
10:50 AM64 °FBroken clouds.3 mph73%29.98 "HgN/A
9:50 AM63 °FBroken clouds.No wind83%29.98 "HgN/A
8:50 AM61 °FBroken clouds.2 mph88%30.01 "HgN/A
7:50 AM59 °FBroken clouds.1 mph94%30.01 "HgN/A
Weather by CustomWeather, © 2014

See weather overviewHow to use our weather pages